[[{"header":{"parameterUnit":"m.s-1","parameterCategory":1,"la1":30.2991,"la2":30.254,"lo1":-89.0895,"lo2":-89.0444,"dy":0.0017,"dx":0.0017,"nx":28,"ny":28,"refTime":"2025-07-14T03:00:00:Z","depth":0,"parameterNumber":2,"parameterNumberName":"U-component_of_WINDS"},"data":[0,0,0,0,0,0,0,0,0,0,0,0,0,0,0,0,0,0,0,0,0,0,0,0,0,0,0,0,0,0,0,0,0,0,0,0,0,0,0,0,0,0,0,0,0,0,0,0,0,0,0,0,0,0,0,0,0,0,3.46,3.4601,0,3.4685,3.4686,3.4687,3.4624,3.4621,3.4618,3.4615,3.4702,3.4707,3.4712,0,0,0,0,0,0,0,0,0,0,0,0,0,3.4381,3.4386,3.46,3.4601,3.4602,3.4685,3.4686,3.4687,3.4624,3.4621,3.4617,3.4614,3.47,3.4706,3.4712,0,0,0,0,0,0,0,0,0,0,0,0,0,3.4472,3.4387,3.46,3.4581,3.458,3.4684,3.4686,3.4687,3.4625,3.4621,3.4617,3.4613,3.4699,3.4706,3.4713,3.4841,0,0,3.4735,3.4738,0,0,0,0,0,0,0,0,3.4467,3.448,3.4582,3.4582,3.4581,3.4639,3.464,3.4739,3.4626,3.4608,3.4615,3.4611,3.4684,3.4693,3.4718,3.4845,3.4848,3.4736,3.474,3.4743,3.4745,0,0,0,0,0,0,0,3.4461,3.4476,3.4633,3.4584,3.4583,3.4567,3.4575,3.4659,3.4668,3.4609,3.4605,3.4615,3.4683,3.4711,3.4719,3.485,3.4736,3.4742,3.4747,3.4749,3.5082,3.5087,0,0,0,0,0,0,3.4457,3.4471,3.4631,3.4636,3.4513,3.4574,3.4584,3.4625,3.4667,3.467,3.4619,3.4612,3.47,3.4711,3.4722,3.4872,3.4743,3.475,3.4754,3.5078,3.5083,3.5088,0,0,0,0,0,0,3.4452,3.4471,3.4627,3.4553,3.4571,3.4583,3.4629,3.4629,3.4656,3.4675,3.4676,3.4645,3.4697,3.4712,3.4811,3.4874,3.4753,3.476,3.5073,3.508,3.5086,3.5174,0,0,0,0,0,0,3.4446,3.447,3.452,3.4554,3.4575,3.4716,3.4633,3.4633,3.4669,3.4661,3.47,3.4702,3.4695,3.48,3.4818,3.4882,3.4766,3.5067,3.5076,3.5084,3.5166,3.5183,3.5198,0,0,0,0,0,3.4439,3.4542,3.4522,3.4542,3.4637,3.4719,3.4731,3.4722,3.4674,3.4723,3.4735,3.4701,3.4865,3.4811,3.4831,3.4898,3.5063,3.5073,3.5083,3.5159,3.518,3.5198,0,0,0,0,0,0,3.4515,3.4546,3.4525,3.4642,3.4679,3.4709,3.477,3.4745,3.4795,3.4786,3.4771,3.4781,3.4884,3.4901,3.4841,3.5022,3.4956,3.4971,3.5007,3.5027,3.5043,3.5036,3.4772,0,0,0,0,0,3.4545,3.461,3.4633,3.4735,3.4754,3.4759,3.4795,3.4784,3.4821,3.4836,3.4855,3.4891,3.4951,3.499,3.5046,3.5169,3.5175,3.5224,3.524,3.5253,3.5265,3.5328,3.535,3.5121,3.5121,3.5121,0,0,3.4609,3.4634,3.4676,3.4751,3.4777,3.4843,3.4773,3.4846,3.4894,3.4847,3.4941,3.4956,3.4996,3.5107,3.5156,3.5124,3.533,3.5266,3.5277,3.5282,3.5341,3.5363,3.5382,3.5128,3.5127,3.5126,0,0,3.4758,3.4784,3.487,3.4898,3.4939,3.4942,3.4962,3.4996,3.5004,3.5098,3.5063,3.512,3.5224,3.5253,3.5281,3.5439,3.5409,3.5458,3.5542,3.5603,3.5621,3.5637,3.5691,3.5711,3.547,3.547,3.5471,0,3.4831,3.493,3.4918,3.4993,3.5026,3.4986,3.5071,3.5099,3.5157,3.518,3.5143,3.527,3.5294,3.541,3.5448,3.5473,3.5495,3.5453,3.562,3.5636,3.565,3.5701,3.5722,3.5476,3.5475,3.5475,3.5474,0,3.5017,3.5086,3.515,3.5205,3.5246,3.5327,3.5325,3.5368,3.5353,3.5359,3.5454,3.5482,3.5541,3.5568,3.5555,3.5681,3.5659,3.5622,3.5555,3.5678,3.5725,3.5745,3.5484,3.5482,3.548,3.5479,0,0,3.5216,3.5263,3.5286,3.531,3.5352,3.5404,3.5482,3.554,3.5575,3.5616,3.5679,3.5767,3.5731,3.5764,3.5753,3.5808,3.5927,3.5763,3.5763,3.579,3.6065,3.6091,3.6114,3.5908,3.5912,3.5915,3.606,0,3.5365,3.5501,3.5491,3.5618,3.568,3.5641,3.5709,3.5741,3.5749,3.5801,3.5809,3.5871,3.5821,3.5839,3.5892,3.5902,3.5982,3.5892,3.5965,3.5968,3.5954,3.6139,3.6168,3.6304,3.6079,3.6083,3.6085,0,3.5557,3.5603,3.5737,3.5766,3.5792,3.5853,3.5903,3.5955,3.599,3.5991,3.6027,3.6007,3.6083,3.6016,3.6121,3.6059,3.6089,3.6098,3.6103,3.6108,3.6032,3.6147,3.6348,3.6367,3.6115,3.6112,3.611,0,3.5686,3.5782,3.5873,3.5895,3.5933,3.5976,3.5993,3.6024,3.6059,3.6103,3.6125,3.6178,3.6207,3.6248,3.6242,3.6194,3.6348,3.6281,3.6349,3.6349,3.6382,3.638,3.6588,3.6405,3.6405,3.6405,3.6404,0,3.5852,3.5934,3.5931,3.5987,3.6077,3.6065,3.6154,3.6167,3.6194,3.6251,3.6222,3.6276,3.6266,3.6319,3.6315,3.6401,3.6415,3.6417,3.6414,3.6418,3.6417,3.6436,3.6425,3.641,3.6409,3.6408,3.6407,0,3.6011,3.6012,3.6108,3.6136,3.6144,3.6209,3.6232,3.6284,3.6289,3.6361,3.6377,3.6384,3.6445,3.6444,3.6514,3.6511,3.6615,3.6603,3.6603,3.66,3.6667,3.666,3.6893,3.6921,3.6723,3.6724,3.6726,0,3.6116,3.6178,3.6211,3.6247,3.6267,3.6325,3.636,3.635,3.6387,3.643,3.6477,3.6535,3.6581,3.668,3.669,3.6743,3.673,3.6808,3.6738,3.6739,3.6728,3.6724,3.6728,3.6821,3.6824,3.6825,3.6827,0,3.6301,3.6298,3.6349,3.64,3.6441,3.6481,3.6518,3.6548,3.6542,3.6585,3.6646,3.6682,3.6752,3.6809,3.6859,3.6877,3.685,3.6849,3.6867,3.6871,3.6867,3.6867,3.6638,3.6843,3.6842,3.6841,3.684,3.6839,3.6434,3.6486,3.6517,3.6574,3.66,3.6634,3.6684,3.6694,3.6745,3.6801,3.6792,3.686,3.6891,3.6956,3.6978,3.703,3.7002,3.7029,3.7036,3.7042,3.7048,3.686,3.7039,3.7039,3.7039,3.7038,3.7038,0,3.6615,3.6633,3.6685,3.6736,3.6781,3.6752,3.6791,3.6829,3.689,3.6921,3.6966,3.7036,3.709,3.7105,3.7158,3.7197,3.7186,3.7211,3.7206,3.721,3.7071,3.7049,3.7218,3.7218,3.7218,3.7218,3.7218,3.7218,3.6714,3.68,3.6801,3.6898,3.6915,3.6981,3.7005,3.7036,3.706,3.7139,3.7184,3.7193,3.7218,3.7271,3.732,3.7322,3.7342,3.7371,3.7369,3.7239,3.722,3.7203,3.7182,3.7376,3.7377,3.7503,3.7504,3.7505]},{"header":{"parameterUnit":"m.s-1","parameterCategory":1,"la1":30.2991,"la2":30.254,"lo1":-89.0895,"lo2":-89.0444,"dy":0.0017,"dx":0.0017,"nx":28,"ny":28,"refTime":"2025-07-14T03:00:00:Z","depth":0,"parameterNumber":3,"parameterNumberName":"V-component_of_WINDS"},"data":[0,0,0,0,0,0,0,0,0,0,0,0,0,0,0,0,0,0,0,0,0,0,0,0,0,0,0,0,0,0,0,0,0,0,0,0,0,0,0,0,0,0,0,0,0,0,0,0,0,0,0,0,0,0,0,0,0,0,0.7773,0.7773,0,0.7763,0.7763,0.7763,0.7714,0.7712,0.7711,0.771,0.7702,0.7702,0.7703,0,0,0,0,0,0,0,0,0,0,0,0,0,0.7751,0.7751,0.7773,0.7773,0.7773,0.7763,0.7763,0.7763,0.7714,0.7712,0.7711,0.771,0.7701,0.7702,0.7703,0,0,0,0,0,0,0,0,0,0,0,0,0,0.7753,0.7752,0.7773,0.7747,0.7745,0.7763,0.7763,0.7763,0.7714,0.7712,0.7711,0.7709,0.7701,0.7702,0.7703,0.7746,0,0,0.7707,0.7708,0,0,0,0,0,0,0,0,0.7753,0.7754,0.7751,0.7749,0.7746,0.7738,0.7752,0.7757,0.7715,0.7726,0.771,0.7708,0.7715,0.7715,0.7717,0.7746,0.7746,0.7708,0.7708,0.7709,0.7709,0,0,0,0,0,0,0,0.7753,0.7754,0.7769,0.7751,0.7748,0.7736,0.7735,0.7753,0.7731,0.7725,0.7721,0.772,0.7714,0.7716,0.7717,0.7746,0.7707,0.7709,0.7709,0.771,0.7807,0.7809,0,0,0,0,0,0,0.7756,0.7754,0.777,0.7769,0.7745,0.7738,0.7736,0.7742,0.773,0.7727,0.7722,0.7718,0.7715,0.7715,0.7716,0.7764,0.7709,0.771,0.7711,0.7805,0.7807,0.7809,0,0,0,0,0,0,0.7756,0.7758,0.777,0.776,0.7761,0.774,0.7748,0.7743,0.7745,0.7728,0.7724,0.7729,0.7713,0.7714,0.7739,0.7764,0.7711,0.7712,0.7803,0.7806,0.7808,0.7862,0,0,0,0,0,0,0.7755,0.7758,0.7774,0.7761,0.7762,0.7793,0.7749,0.7744,0.7748,0.7743,0.7733,0.773,0.7712,0.7737,0.774,0.7764,0.7713,0.7801,0.7804,0.7808,0.7858,0.7867,0.7874,0,0,0,0,0,0.7755,0.7791,0.7775,0.7778,0.7782,0.7795,0.7795,0.7773,0.775,0.7766,0.7754,0.773,0.776,0.774,0.7743,0.7768,0.7799,0.7803,0.7807,0.7855,0.7865,0.7874,0,0,0,0,0,0,0.7809,0.7789,0.7771,0.7804,0.7801,0.7786,0.7806,0.7785,0.7789,0.7784,0.7757,0.7755,0.7784,0.7778,0.7756,0.7808,0.7775,0.778,0.7811,0.782,0.7828,0.7829,0.7714,0,0,0,0,0,0.7824,0.7836,0.7818,0.7849,0.7848,0.7827,0.7832,0.7815,0.7811,0.781,0.78,0.7798,0.7806,0.7813,0.782,0.7857,0.7854,0.7875,0.7883,0.789,0.7894,0.7912,0.7921,0.7823,0.7823,0.7823,0,0,0.7857,0.7848,0.7857,0.7859,0.7855,0.7868,0.7827,0.7843,0.7852,0.7813,0.7835,0.7827,0.7823,0.7853,0.7866,0.7849,0.792,0.7895,0.79,0.7901,0.7917,0.7927,0.7935,0.7825,0.7825,0.7824,0,0,0.7924,0.7918,0.7942,0.7938,0.7931,0.7917,0.7922,0.791,0.7903,0.7924,0.7895,0.7905,0.7921,0.7918,0.7919,0.7982,0.7959,0.7985,0.8025,0.8043,0.8051,0.8057,0.8079,0.8087,0.7989,0.7989,0.7989,0,0.7966,0.7983,0.7957,0.7974,0.7976,0.7939,0.7964,0.7961,0.7958,0.796,0.7941,0.7958,0.7952,0.7981,0.7996,0.7998,0.8003,0.7986,0.8052,0.8058,0.8064,0.8084,0.8093,0.7992,0.7992,0.7992,0.7991,0,0.8035,0.8047,0.8068,0.8064,0.8067,0.8088,0.8065,0.8072,0.8054,0.8041,0.8063,0.8054,0.8058,0.8063,0.8047,0.8089,0.8079,0.8056,0.8023,0.8077,0.8096,0.8103,0.7997,0.7996,0.7995,0.7994,0,0,0.8137,0.8116,0.8124,0.8121,0.811,0.8119,0.8138,0.814,0.8146,0.8145,0.8159,0.8172,0.815,0.8151,0.8133,0.8148,0.8197,0.8123,0.8123,0.8137,0.8243,0.826,0.827,0.8182,0.8183,0.8184,0.8243,0,0.82,0.823,0.8206,0.824,0.8251,0.8215,0.8231,0.8226,0.8214,0.8221,0.8208,0.8217,0.8188,0.8188,0.8201,0.8189,0.8218,0.8184,0.8195,0.8196,0.8198,0.8279,0.8298,0.8354,0.825,0.8251,0.8252,0,0.8278,0.8278,0.8313,0.8298,0.8301,0.8316,0.8315,0.8323,0.8316,0.8306,0.8305,0.8283,0.8299,0.8266,0.8288,0.8265,0.8268,0.8262,0.8263,0.8264,0.8228,0.8283,0.8372,0.838,0.8264,0.8263,0.8262,0,0.8349,0.8358,0.8379,0.8378,0.836,0.8371,0.8365,0.8355,0.8358,0.8357,0.8358,0.836,0.8362,0.8363,0.8342,0.832,0.8366,0.8331,0.8358,0.8359,0.8371,0.837,0.8462,0.8372,0.8372,0.8372,0.8372,0,0.8422,0.8445,0.841,0.8424,0.8448,0.8419,0.8444,0.8433,0.8425,0.8436,0.8405,0.8415,0.8386,0.8393,0.8376,0.8396,0.8397,0.839,0.8385,0.8393,0.8394,0.8395,0.839,0.8374,0.8373,0.8373,0.8373,0,0.8506,0.8483,0.8504,0.8485,0.8481,0.8499,0.8483,0.8495,0.8479,0.8493,0.8495,0.8471,0.8478,0.8456,0.846,0.8448,0.8478,0.8467,0.848,0.8477,0.8505,0.8503,0.8601,0.8612,0.8515,0.8516,0.8517,0,0.8554,0.857,0.8552,0.8557,0.8551,0.8559,0.856,0.8533,0.8536,0.8527,0.854,0.8543,0.8545,0.8558,0.8541,0.8543,0.8532,0.8566,0.8532,0.8539,0.8532,0.8532,0.8533,0.8574,0.8575,0.8576,0.8577,0,0.8642,0.863,0.8633,0.8632,0.8635,0.8633,0.8629,0.8635,0.8605,0.861,0.8615,0.8617,0.8619,0.8623,0.8621,0.8614,0.8591,0.8587,0.8593,0.8602,0.8609,0.8605,0.8499,0.8585,0.8584,0.8584,0.8583,0.8583,0.871,0.8722,0.871,0.8715,0.8708,0.8705,0.8714,0.8699,0.8704,0.8703,0.8686,0.8695,0.8685,0.868,0.8675,0.8682,0.8666,0.8675,0.8678,0.8681,0.8685,0.8607,0.8681,0.8681,0.8681,0.8681,0.868,0,0.8796,0.8786,0.879,0.8785,0.8788,0.8763,0.8757,0.8762,0.877,0.8762,0.8764,0.877,0.8773,0.8756,0.8757,0.8765,0.8754,0.8766,0.8766,0.8764,0.8699,0.8694,0.8775,0.8775,0.8775,0.8775,0.8775,0.8775,0.8841,0.886,0.8846,0.8861,0.8851,0.8859,0.8857,0.8854,0.8847,0.8855,0.8857,0.8845,0.8834,0.8833,0.8835,0.8829,0.8831,0.8847,0.8838,0.8778,0.8769,0.876,0.8755,0.8848,0.8848,0.8903,0.8903,0.8904]}]]